GFSSW_sfc_thetae_120.txt.gz
Theta_e
319 319 318 319 319 319 318 317 317 318 319 319 318 319 320 320 320 315 303 311 315 343 338 329 320 317 323 330 337 335 317 314 317 316 318 325 324 330 333 328 329 332 330 334 341
321 320 320 319 319 319 319 318 318 318 318 318 319 319 319 320 312 308 317 328 335 340 314 315 311 321 323 327 331 325 316 319 325 326 324 324 325 327 326 326 326 328 335 339 337
321 321 320 320 320 319 319 319 319 318 317 318 318 319 320 319 306 305 337 335 341 339 313 321 322 323 319 327 328 328 318 324 325 327 329 328 325 328 324 322 326 326 331 335 333
321 320 320 320 320 320 320 320 318 318 317 318 319 319 321 311 296 315 345 340 344 333 310 317 322 318 319 320 329 322 328 327 328 328 327 327 329 323 325 326 331 333 334 334 330
320 320 320 320 320 320 320 319 319 317 317 318 319 320 309 297 303 319 348 342 326 312 307 316 319 319 315 322 327 325 325 327 329 329 328 330 327 325 325 332 334 334 334 332 330
319 319 319 319 319 319 319 319 318 317 317 318 319 320 305 291 310 329 328 322 311 304 302 318 321 322 315 314 324 327 326 325 327 327 329 325 329 327 327 333 331 332 331 331 332
319 319 319 319 319 319 318 317 317 317 318 318 319 317 302 298 319 322 318 313 305 303 300 305 318 314 311 321 332 327 321 324 326 327 325 328 323 325 328 331 329 329 330 330 332
319 318 318 318 318 316 314 313 314 317 318 319 319 309 301 308 314 314 317 308 305 301 303 310 312 309 308 328 325 323 321 314 322 324 327 326 312 325 329 329 327 328 329 330 332
318 318 317 316 315 313 312 313 317 318 320 320 308 304 301 322 313 313 318 303 300 300 303 312 311 305 316 315 310 315 308 311 315 323 323 323 314 324 329 328 325 327 328 330 331
318 317 315 314 313 312 312 315 320 319 319 319 316 301 306 308 309 310 312 304 300 300 303 302 300 297 297 300 295 306 308 310 310 318 322 319 318 323 325 326 325 326 328 328 329
318 317 316 313 312 311 307 303 301 301 307 302 302 305 309 313 310 305 310 309 304 302 299 300 297 294 297 300 310 314 314 310 316 320 319 317 319 322 324 324 322 318 321 324 328
317 317 315 314 312 311 304 299 302 305 298 307 310 310 313 313 305 306 310 304 302 296 300 297 293 300 302 306 317 315 312 311 317 321 319 317 317 323 324 325 323 319 322 325 327
316 316 313 312 312 306 303 303 306 304 296 303 307 308 307 310 303 304 308 305 300 297 296 295 298 303 316 315 314 314 312 311 312 317 318 316 312 318 324 326 326 325 322 326 325
316 315 312 310 306 305 303 309 305 304 293 299 298 305 305 303 300 308 307 303 300 298 298 296 300 307 314 313 313 309 315 316 313 308 304 316 302 312 319 320 321 322 323 323 326
315 313 311 309 300 299 304 306 304 303 285 303 303 307 301 299 300 303 307 304 298 298 297 296 296 297 311 312 314 309 318 314 312 308 306 308 305 307 317 316 319 320 323 324 326
314 312 311 305 301 305 308 303 303 294 287 300 304 299 298 300 301 303 304 305 303 298 296 298 300 299 301 311 316 318 312 311 309 305 297 305 305 304 310 315 320 322 322 325 324
311 309 307 308 304 307 305 306 292 288 300 298 296 297 295 296 299 299 298 296 294 290 290 296 298 313 318 312 316 311 303 295 293 297 298 308 305 304 312 318 322 322 321 325 325
309 307 307 309 305 306 306 297 287 295 296 300 297 297 295 299 299 298 296 294 296 294 290 289 291 310 315 312 309 306 301 296 292 295 298 310 302 305 316 321 325 326 325 326 325
307 303 304 307 308 305 302 291 289 292 297 298 297 295 295 298 296 297 294 293 296 296 290 289 292 304 315 316 314 307 300 305 298 302 298 302 308 312 318 317 319 323 323 325 327
305 303 305 309 308 305 298 293 296 299 298 298 292 295 291 295 294 295 294 301 300 300 296 294 290 298 311 316 314 308 311 298 298 293 292 297 303 302 310 314 316 316 320 324 328
304 302 307 309 307 301 295 294 300 302 300 296 295 294 294 293 294 293 296 301 304 302 300 295 294 295 299 301 304 301 302 295 299 298 294 291 293 313 314 314 316 318 321 321 327
299 298 307 306 299 293 294 297 301 298 300 299 298 295 294 296 295 295 297 301 306 304 297 297 292 290 295 299 300 301 295 294 293 291 292 292 292 318 321 322 321 322 322 322 328
298 299 309 305 295 293 294 298 300 297 296 297 295 298 298 295 293 297 299 305 305 302 298 298 293 290 293 297 298 297 298 293 289 289 288 288 291 318 319 319 321 320 324 324 328
299 297 303 302 295 295 293 295 295 300 297 297 294 294 292 294 295 294 296 303 303 306 314 305 295 294 289 293 295 295 299 297 291 288 289 289 306 314 315 317 319 321 324 326 327
300 297 301 299 300 297 295 294 297 294 297 296 293 295 292 292 294 293 296 296 300 305 303 296 292 295 296 300 299 298 304 307 301 299 292 301 308 312 315 318 320 321 321 325 327
304 304 306 302 301 299 293 291 295 295 296 293 293 296 295 293 295 293 293 290 291 299 298 299 292 294 295 300 304 304 306 307 309 310 309 309 307 316 320 320 319 322 321 321 324
300 304 306 301 301 298 299 300 297 298 299 298 297 296 295 297 299 294 297 297 296 295 296 295 294 293 287 296 301 296 302 306 307 310 307 301 309 318 315 316 317 317 318 319 320

GFSSW_sfc_thetae_123.txt.gz
Theta_e
320 320 320 319 319 319 319 318 318 318 319 319 319 319 320 320 320 317 306 316 319 338 340 329 321 324 332 338 339 336 323 317 316 317 319 328 326 331 334 329 331 334 332 337 344
321 321 320 320 320 320 320 319 319 319 318 318 319 319 320 321 314 310 322 324 332 347 322 317 318 329 333 333 335 327 321 320 325 327 323 326 326 327 326 327 329 332 338 342 343
321 321 321 321 320 320 320 320 320 318 318 317 319 320 320 321 311 311 339 332 340 336 318 326 328 330 328 333 332 328 320 325 327 329 330 326 327 329 324 323 329 329 334 338 339
320 320 320 320 321 320 320 320 319 319 317 318 319 320 321 316 304 317 345 341 343 330 316 328 329 327 326 325 332 324 328 328 328 329 330 327 330 327 327 327 334 335 337 338 338
320 320 320 320 320 320 320 320 319 318 317 318 320 320 315 304 306 322 346 341 330 317 316 326 328 325 321 324 329 326 327 329 329 330 331 331 328 325 327 333 335 337 337 337 338
319 319 319 319 319 320 319 317 317 317 318 319 320 321 312 304 317 332 333 318 314 311 310 327 327 327 318 322 327 328 328 326 328 329 330 327 328 328 330 334 334 335 335 336 337
319 319 319 319 318 317 315 314 314 315 318 319 320 319 307 307 324 327 322 318 313 311 308 315 322 319 316 328 333 330 323 325 326 327 325 330 325 324 332 333 332 334 335 336 337
319 319 318 316 315 315 314 313 314 316 318 319 320 316 307 312 319 320 321 312 312 311 310 312 322 316 320 333 327 323 321 317 320 325 326 328 318 329 333 331 330 332 334 335 336
318 318 316 315 314 313 312 313 318 318 320 321 317 313 309 323 317 319 322 308 310 309 311 314 314 313 329 321 317 320 311 314 315 323 324 325 319 327 332 330 329 332 333 334 336
318 317 316 315 313 312 311 315 321 321 322 320 318 309 313 312 314 316 321 309 306 307 308 309 309 309 316 314 307 311 312 312 312 317 322 320 320 326 330 328 328 331 333 334 334
318 317 315 315 313 311 310 312 311 310 314 309 309 309 311 318 314 314 317 313 309 307 304 307 308 305 307 312 310 314 315 312 314 319 317 318 321 324 328 328 328 330 332 333 334
317 315 314 313 312 312 309 310 310 310 306 309 311 313 315 317 309 310 316 310 308 303 307 307 305 308 307 307 315 316 315 313 317 320 318 317 318 324 326 326 329 330 331 333 334
316 314 313 312 312 311 311 310 312 312 306 308 311 312 313 316 309 309 313 311 307 304 305 307 305 306 308 309 314 316 314 313 314 319 319 317 313 318 324 328 328 330 331 333 334
316 314 312 310 310 309 311 314 313 311 304 305 307 311 311 310 306 312 315 310 306 304 305 305 306 309 311 308 316 310 318 317 315 314 308 317 304 313 319 322 326 327 327 330 333
315 313 311 309 309 307 310 313 310 310 292 308 309 313 309 308 308 308 312 310 305 304 305 303 302 306 308 309 318 312 320 317 315 313 312 311 307 312 319 319 324 327 329 329 332
314 312 311 309 310 312 315 311 311 302 292 304 309 305 306 306 307 309 309 311 309 305 304 304 306 305 306 318 320 322 317 316 314 312 303 309 309 308 314 320 322 327 329 331 331
311 309 309 311 311 312 312 315 302 295 304 302 303 304 304 304 304 306 305 304 302 298 299 302 303 316 317 314 321 317 313 305 302 302 302 310 307 310 317 322 326 326 328 332 332
308 308 310 312 314 313 315 307 295 299 300 305 304 304 303 304 304 303 303 302 304 302 300 298 299 314 319 314 311 313 309 303 295 299 303 312 306 312 321 322 326 331 329 332 332
307 311 313 314 314 313 312 299 298 299 302 302 304 302 302 304 303 303 302 302 303 304 300 298 299 316 319 320 319 312 307 312 305 307 303 306 312 318 321 321 325 326 328 328 331
314 312 313 315 314 315 309 298 303 305 303 305 300 302 300 301 302 303 303 307 305 305 305 303 299 307 317 321 317 316 317 306 307 297 294 302 306 309 317 320 322 324 326 328 331
311 313 314 315 314 312 304 304 305 308 305 304 302 301 301 301 302 302 303 306 308 306 307 305 303 303 314 313 312 311 311 308 307 304 299 298 301 318 318 322 322 323 327 330 330
308 309 314 314 309 303 305 305 302 305 306 305 305 303 303 302 303 302 302 305 309 309 303 305 304 302 302 306 307 311 310 311 304 300 304 303 302 321 322 324 326 325 327 329 332
307 308 316 314 304 305 304 303 305 304 303 304 302 305 305 303 302 303 304 308 308 307 304 306 303 299 301 305 306 306 307 304 301 302 301 298 301 322 323 323 326 327 329 330 331
308 305 313 311 305 305 302 302 302 304 302 302 301 303 302 303 304 301 303 305 306 310 312 312 304 301 298 301 304 303 307 305 302 299 301 300 306 317 320 321 323 326 330 330 333
309 306 308 308 308 308 305 301 301 300 303 303 302 300 302 301 302 301 303 303 305 311 309 306 301 302 303 305 303 308 309 312 308 309 300 304 310 317 319 320 322 324 328 329 332
311 312 313 311 308 307 299 301 301 301 302 301 301 302 303 301 303 301 302 302 302 308 308 308 302 304 300 303 305 306 308 309 312 312 311 312 311 320 321 323 322 319 321 322 323
307 311 313 306 307 306 306 306 301 303 304 304 304 303 301 303 306 304 305 306 306 306 305 305 305 302 297 301 304 301 306 307 311 314 314 309 315 321 318 316 317 318 319 319 321

GFSSW_sfc_thetae_126.txt.gz
Theta_e
321 322 321 321 321 321 320 320 320 319 319 319 320 320 320 321 321 320 311 317 322 333 336 327 329 335 340 341 341 338 326 320 319 320 324 331 328 334 335 331 331 334 332 338 344
322 322 322 321 321 321 321 321 321 320 320 320 319 320 320 321 318 313 323 323 330 344 327 322 328 334 337 337 340 334 326 324 329 329 326 329 329 330 328 328 331 332 338 342 343
321 321 321 321 321 321 321 321 321 320 319 319 319 321 321 323 316 318 340 330 337 336 324 325 334 335 333 336 335 332 326 328 327 331 330 329 328 331 327 324 330 331 335 338 340
321 321 321 321 321 321 321 321 320 319 318 318 319 321 322 322 307 319 339 339 338 326 326 329 334 331 331 329 334 327 332 331 329 332 330 328 331 324 328 328 335 336 338 339 339
320 320 320 320 320 320 320 319 318 317 318 319 320 321 321 313 314 331 339 338 325 320 329 331 331 331 326 328 331 329 331 332 331 332 332 333 329 328 330 334 336 338 338 336 338
320 320 320 319 319 318 317 316 316 316 318 320 321 321 318 311 327 333 326 321 319 317 326 335 333 332 326 330 330 332 332 329 330 329 332 329 330 329 332 335 334 334 335 338 338
319 319 318 317 317 316 316 316 314 315 317 320 321 322 314 315 327 328 321 317 318 317 323 333 336 326 324 331 336 333 327 329 327 327 329 333 327 327 335 334 333 333 335 337 339
319 319 317 317 316 315 315 314 315 317 318 320 322 323 312 318 326 323 323 319 319 318 319 326 331 323 327 336 331 326 326 318 326 327 327 329 319 331 336 333 331 332 334 336 339
318 318 317 316 316 314 313 313 319 319 321 322 324 320 312 322 320 324 325 312 317 316 317 319 324 322 331 323 320 323 317 317 320 328 325 325 321 333 335 333 330 332 334 336 338
318 317 316 315 314 313 312 313 321 323 325 324 322 316 317 315 318 322 320 314 311 313 314 317 321 318 324 319 307 313 315 317 317 322 324 321 322 330 334 332 332 332 332 335 337
318 316 315 314 314 312 314 320 320 317 319 313 314 313 316 319 319 319 318 313 312 312 314 320 317 313 314 318 313 314 317 316 319 322 317 317 323 328 332 332 328 331 332 334 335
317 315 314 314 313 312 316 317 315 315 311 315 316 316 318 320 311 316 322 313 308 305 310 315 312 316 314 312 312 314 315 316 320 322 318 316 322 325 329 332 328 332 331 333 335
316 315 314 313 313 315 319 316 319 319 313 312 315 315 316 319 312 313 318 314 308 307 309 310 314 315 312 312 311 313 314 314 314 321 322 316 314 319 328 331 333 335 335 334 334
316 314 313 311 313 320 318 319 320 318 308 308 311 314 316 315 310 317 319 314 310 306 310 312 312 311 313 312 314 309 319 317 316 317 309 317 305 314 326 328 330 332 335 334 334
315 314 311 309 317 317 319 320 320 318 297 309 311 318 315 311 312 312 319 314 308 308 310 308 309 310 307 311 316 313 321 318 317 316 315 313 310 314 321 321 325 331 334 334 335
314 312 311 315 320 320 321 320 318 306 295 306 312 309 310 311 311 313 313 316 314 308 309 308 311 309 309 312 317 323 318 317 317 316 308 314 312 313 317 321 324 331 333 334 335
311 309 312 318 317 320 321 320 307 301 308 304 305 309 309 307 308 309 308 308 306 302 302 306 307 310 311 310 318 320 316 304 304 305 308 315 313 315 319 325 326 329 333 335 337
308 308 315 320 323 321 320 313 300 302 304 309 308 308 306 308 308 307 306 305 308 306 304 301 300 309 314 311 311 314 312 304 297 301 307 315 308 315 323 325 329 331 333 336 336
307 322 323 325 323 323 317 304 304 304 306 306 307 304 305 307 308 307 306 306 307 309 304 304 301 315 318 318 316 312 308 314 308 309 306 310 313 322 325 325 328 326 333 334 335
323 322 322 323 324 321 313 300 306 309 308 308 302 305 302 305 305 306 306 310 308 310 312 308 302 312 318 322 320 318 318 306 308 300 298 303 308 309 321 322 325 326 328 332 336
320 317 321 325 322 318 308 307 308 311 310 307 305 304 305 305 306 306 306 309 311 310 312 310 308 308 317 315 313 315 314 312 312 309 300 302 306 320 324 326 325 326 329 332 334
317 312 323 325 314 316 308 309 303 309 311 309 309 307 306 307 306 306 305 309 312 312 307 310 308 304 307 312 316 317 315 313 305 304 308 305 305 324 326 328 328 328 328 331 335
313 317 325 322 308 308 311 309 310 309 308 308 306 308 310 307 304 306 307 310 312 311 309 311 306 301 303 309 312 310 312 312 313 310 306 301 305 325 328 328 331 330 331 332 334
314 309 317 319 317 312 309 308 307 310 308 308 307 309 307 305 308 305 306 309 310 313 316 313 307 305 298 303 308 306 309 311 310 304 304 304 307 321 323 326 328 332 334 334 335
316 311 315 311 312 313 313 309 307 305 309 309 307 307 305 302 303 303 306 308 310 312 314 311 305 306 307 307 308 307 308 311 308 310 306 308 309 321 324 322 323 325 327 332 333
313 315 321 317 316 314 306 310 307 308 308 306 306 307 307 305 305 303 305 306 307 311 311 311 306 307 304 306 308 307 310 310 311 312 312 313 312 325 327 325 323 322 322 323 324
314 318 317 310 314 312 310 309 307 309 309 310 309 307 305 306 309 310 311 310 310 309 308 308 307 305 300 305 304 302 308 309 310 314 314 309 318 326 325 322 319 321 322 321 321

GFSSW_sfc_thetae_129.txt.gz
Theta_e
323 323 323 323 322 323 322 322 322 322 322 320 321 321 321 322 322 323 316 317 324 336 335 330 332 338 341 341 342 340 326 318 318 320 325 331 329 334 334 330 331 334 332 337 341
323 323 322 322 322 322 322 322 322 322 322 321 321 321 322 322 322 317 324 326 327 339 326 327 330 335 334 336 337 333 324 322 332 328 326 329 329 329 328 328 329 331 337 340 341
322 322 322 322 322 322 322 322 322 322 321 320 320 321 322 324 321 322 336 330 339 342 331 328 334 334 332 335 332 333 327 330 328 334 330 329 330 330 326 325 330 330 335 338 339
321 321 321 321 321 321 322 322 321 320 319 320 320 322 323 325 310 327 338 340 341 332 324 326 332 331 328 325 334 328 333 331 330 334 330 328 330 326 330 330 334 336 337 337 337
321 321 321 321 320 319 319 319 318 318 318 320 321 322 323 320 319 337 339 337 327 325 325 330 331 331 325 329 330 329 332 333 332 333 333 333 327 325 330 333 336 336 337 337 337
320 320 320 319 318 318 318 318 318 317 318 319 322 322 324 314 328 332 324 322 322 321 329 335 332 335 329 329 328 333 334 332 330 333 333 329 329 331 330 334 335 335 334 334 334
319 319 319 318 318 318 317 316 316 317 318 320 323 325 322 319 329 324 322 319 321 320 327 337 339 333 330 329 336 335 329 330 328 327 331 334 325 325 333 334 332 332 334 335 336
319 319 318 318 318 317 316 315 316 319 320 321 323 328 316 326 330 324 323 318 320 321 326 337 337 329 327 336 331 327 327 318 325 328 329 331 318 330 335 332 329 331 333 335 335
319 318 317 317 316 316 315 314 319 321 322 323 327 326 313 320 321 326 327 316 318 319 324 331 332 328 330 325 320 324 314 319 323 331 326 326 321 331 335 332 328 330 332 334 336
319 317 316 316 316 315 313 314 322 321 325 328 326 320 320 316 320 324 320 318 315 315 319 327 329 320 323 318 307 307 312 318 319 326 327 322 322 328 332 331 329 329 331 333 334
318 316 315 316 315 313 315 323 323 322 324 315 315 315 317 320 322 321 318 314 313 314 314 322 318 313 316 320 315 315 316 318 322 326 323 320 321 325 330 331 327 328 331 332 333
317 316 315 315 314 313 317 320 319 320 313 317 317 317 319 320 313 317 321 312 310 307 315 316 313 316 319 316 314 314 314 317 322 325 322 317 319 324 331 329 332 330 329 330 333
316 315 315 314 313 316 323 321 326 324 315 314 317 317 318 321 314 314 319 315 310 308 309 310 314 318 314 314 313 314 315 313 315 322 324 317 313 317 329 334 335 331 332 334 333
316 315 314 312 313 325 322 325 327 324 310 310 313 316 318 317 311 319 320 316 311 308 310 310 317 313 313 312 314 309 319 317 316 318 310 319 304 315 322 328 331 330 334 333 333
314 313 311 310 321 320 322 327 326 322 301 311 312 321 318 314 314 313 319 315 310 309 311 310 312 310 309 312 315 312 319 318 317 313 313 314 307 313 322 322 328 330 334 334 333
313 311 311 317 323 323 325 326 324 308 298 308 313 311 312 313 313 314 314 317 316 310 311 311 315 312 313 312 314 318 317 318 317 314 308 312 310 310 317 323 329 333 333 336 333
311 309 312 323 320 325 326 322 309 303 309 306 308 311 311 309 310 312 310 310 308 304 304 307 308 311 312 309 314 316 313 305 304 305 304 312 311 314 321 326 329 333 334 336 336
309 308 317 323 326 326 324 315 303 305 306 311 309 309 309 310 310 309 308 308 310 309 307 303 300 308 313 310 310 313 312 306 298 302 303 315 309 312 324 327 330 331 335 337 334
308 325 325 326 327 326 318 307 308 306 309 308 309 307 308 309 310 309 308 308 310 311 306 305 304 313 314 314 314 311 309 315 306 309 306 304 317 323 326 327 328 328 329 334 335
322 325 325 328 328 324 314 306 308 311 310 309 305 308 305 307 307 308 308 311 309 311 313 310 303 311 314 317 318 313 318 307 307 298 299 308 306 308 321 326 328 328 330 332 334
322 319 326 328 327 318 310 310 310 313 312 308 307 307 307 306 308 308 308 311 311 311 313 311 308 306 312 312 310 313 310 311 312 312 305 304 304 319 326 328 326 327 330 332 334
320 312 327 328 314 315 312 311 304 312 313 311 311 309 308 309 308 307 307 310 314 313 309 313 308 305 307 312 313 309 309 313 307 304 304 300 306 326 330 331 331 327 328 333 333
317 317 327 325 309 312 314 312 312 311 311 310 309 309 311 309 306 308 309 313 313 312 311 313 307 301 303 308 313 307 310 310 309 311 306 302 307 324 329 331 333 331 327 329 333
316 308 317 319 318 314 313 311 310 313 312 311 310 311 309 307 310 308 308 312 312 313 320 315 308 305 301 302 309 308 310 311 307 304 301 305 304 321 324 327 332 332 332 329 335
318 310 316 313 312 314 314 313 310 309 312 313 310 309 307 304 305 305 308 309 312 314 312 312 305 307 309 308 309 307 305 306 309 310 304 308 309 320 326 326 328 328 333 334 334
313 315 319 316 316 316 309 312 311 311 311 309 308 310 309 306 308 305 308 308 307 313 311 314 307 308 305 308 308 305 307 309 309 311 308 309 306 328 329 328 326 326 327 327 329
319 317 315 308 312 312 312 313 311 313 313 313 312 310 308 309 311 312 312 311 311 310 310 310 308 306 302 306 307 303 306 307 311 312 312 309 321 328 327 324 326 324 324 323 323